Regional Weather Roundup
Issued by NWS

Home | Current Version | Previous Version | Graphics & Text | Print | Product List | Glossary On
Versions: 1 2 3 4 5 6 7 8 9 10 11 12 13 14 15 16 17 18 19 20 21 22 23 24 25 26 27 28 29 30 31 32 33 34 35 36 37 38 39 40 41 42 43 44 45 46 47 48 49
000
ASUS43 KMPX 022110
RWRMN
WEATHER ROUNDUP FOR MINNESOTA
NATIONAL WEATHER SERVICE TWIN CITIES/CHANHASSEN MN
400 PM CDT WED SEP 02 2015


NOTE: "FAIR" INDICATES FEW OR NO CLOUDS BELOW 12,000 FEET WITH NO
SIGNIFICANT WEATHER AND/OR OBSTRUCTIONS TO VISIBILITY. N/A MEANS
CURRENT SKY AND/OR WEATHER CONDITIONS ARE NOT AVAILABLE.

MNZ060>063-068>070-022200-
   Twin Cities Metro

CITY           SKY/WX    TMP DP  RH WIND       PRES   REMARKS
TWIN CITIES    FAIR      77  68  73 E9        29.89F
ST PAUL        FAIR      75  68  78 NE10      29.90F
CRYSTAL        FAIR      76  67  73 E8        29.88F
BLAINE         CLOUDY    75  70  83 E13       29.90F
LAKEVILLE      FAIR      79  73  83 NE7       29.88F
EDEN PRAIRIE   FAIR      79  70  74 E9        29.87F
SOUTH ST PAUL  FAIR      76  67  74 NE9       29.89F
LAKE ELMO      CLOUDY    72  68  88 E8        29.92F
$$
MNZ001>005-007-008-013>017-022>024-027-028-022200-
   Northwest Minnesota

CITY           SKY/WX    TMP DP  RH WIND       PRES   REMARKS
BEMIDJI        FAIR      83  66  55 SE12G17   29.88F
HALLOCK        FAIR      91  63  38 SE17      29.78S HX  92
ROSEAU         FAIR      88  70  55 S14       29.83F HX  92
WARROAD        FAIR      86  72  62 S12       29.84F HX  92
THIEF RVR FALL FAIR      88  64  45 SE14      29.82F
CROOKSTON      FAIR      90  63  40 S16       29.80F HX  90
FOSSTON        FAIR      90  59  35 SE10G17   29.85F
DETROIT LAKES  FAIR      84  63  48 SE16      29.87F
MOORHEAD       FAIR      90  64  43 SE13      29.80F HX  91
PARK RAPIDS    FAIR      85  64  49 SE15G21   29.88F
MAHNOMEN       FAIR      85  64  50 SE12G18   29.84F
$$
MNZ006-009>011-018-025>026-022200-
   North Central Minnesota

CITY           SKY/WX    TMP DP  RH WIND       PRES   REMARKS
BAUDETTE       FAIR      84  69  60 S12       29.87F
FLAG ISLAND    FAIR      77  70  78 S12       29.84F
INTL FALLS     FAIR      83  65  54 SW8       29.90F
WASKISH        FAIR      84  64  51 SE8       29.88S
BIG FORK       FAIR      84  61  45 S8        29.91F
LONGVILLE      FAIR      82  64  54 SE6       29.90F
GRAND RAPIDS     N/A     81  63  54 S9        29.92F
CRANE LAKE     FAIR      79  63  57 SE3       29.95S
ORR            FAIR      82  61  47 E5        29.90F
COOK           FAIR      79  64  61 SE6       29.94S
WALKER         FAIR      81  65  57 SE9       29.89F
$$
MNZ012-019>021-037-022200-
   Northeast Minnesota

CITY           SKY/WX    TMP DP  RH WIND       PRES   REMARKS
DULUTH         PTSUNNY   71  65  81 E15       29.96F
ELY            FAIR      75  61  60 SE9       29.97S
HIBBING        FAIR      78  67  68 SE12      29.94F
EVELETH        PTSUNNY   75  64  69 SE8       29.96F
DULUTH HARBOR  PTSUNNY   64  61  88 NE6       29.96F
TWO HARBORS    PTSUNNY   73  66  78 NE7       29.95F
SILVER BAY     FAIR      73  64  73 E6        29.95F
GRAND MARAIS     N/A     65  52  62 NE3       29.97F
G MARAIS ARPRT FAIR      70  55  60 SE5       30.02S
$$
MNZ029>031-032-039>041-046>048-054>057-064-022200-
   West Central Minnesota

CITY           SKY/WX    TMP DP  RH WIND       PRES   REMARKS
FERGUS FALLS   FAIR      82  68  61 SE14      29.82F
WHEATON        FAIR      82  70  65 E15G22    29.82S
MORRIS         FAIR      84  72  65 SE15G21   29.83S
ALEXANDRIA     FAIR      81  68  64 SE13G22   29.89F
ELBOW LAKE     FAIR      80  68  66 E17       29.84F
WADENA         FAIR      82  66  57 SE12      29.87F
GLENWOOD       FAIR      81  70  69 E15       29.89S
APPLETON       FAIR      88  72  58 E14       29.81F HX  94
BENSON         FAIR      82  70  65 SE8       29.84S
ORTONVILLE     FAIR      86  72  62 SE12G18   29.81F HX  92
MADISON        FAIR      86  72  62 E13       29.81S HX  92
WILLMAR        FAIR      82  73  74 E12       29.87F
$$
MNZ033>034-036-042>043-049>051-058-059-022200-
   Central Minnesota

CITY           SKY/WX    TMP DP  RH WIND       PRES   REMARKS
ST CLOUD       CLOUDY    74  68  81 SE9       29.90S
SAUK CENTRE    MOCLDY    80  69  70 SE10      29.89S
PAYNESVILLE    PTSUNNY   78  69  74 NE12      29.89S
AITKIN         FAIR      81  66  61 S8        29.90F
PINE RIVER     FAIR      79  66  65 SE12G18   29.94S
BRAINERD       FAIR      78  66  66 SE13      29.91F
STAPLES        FAIR      82  64  54 SE9       29.89S
LONG PRAIRIE   FAIR      81  68  65 E9G16     29.90S
LITTLE FALLS   FAIR      79  64  61 SE9G16    29.90F
LITCHFIELD     FAIR      81  73  78 E12       29.89F
BUFFALO        FAIR      76  67  73 E8        29.89F
MAPLE LAKE     FAIR      77  71  82 E6        29.90F
$$
MNZ037-044-045-052-053-022200-
   East Central Minnesota

CITY           SKY/WX    TMP DP  RH WIND       PRES   REMARKS
PRINCETON      FAIR      77  68  73 SE10      29.90F
MORA           PTSUNNY   73  64  73 SE6       29.92F
CAMBRIDGE      PTSUNNY   77  64  65 E5        29.89F
RUSH CITY      PTSUNNY   74  67  77 SE5       29.92S
MOOSE LAKE     PTSUNNY   75  63  64 SE5       29.92S
HINCKLEY       CLOUDY    73  66  78 E6        29.92F
CLOQUET        FAIR      75  63  64 SE7       29.94F
MCGREGOR       FAIR      79  64  61 E9        29.92F
$$
MNZ071>073-080-081-089-090-097-098-022200-
   Southwest Minnesota

CITY           SKY/WX    TMP DP  RH WIND       PRES   REMARKS
MONTEVIDEO     FAIR      91  73  55 SE12      29.84F HX 100
GRANITE FALLS  FAIR      87  73  64 E8        29.84F HX  94
CANBY          FAIR      89  73  59 SE12      29.82F HX  96
MARSHALL       FAIR      88  72  58 SE9       29.84S HX  94
REDWOOD FALLS  FAIR      87  73  62 SE7       29.83F HX  94
OLIVIA         FAIR      81  70  69 E9G17     29.85S
PIPESTONE      FAIR      84  72  65 S9        29.84F
WINDOM         FAIR      86  72  62 S7        29.85F HX  92
WORTHINGTON    FAIR      82  72  69 S12       29.85F
JACKSON        FAIR      86  72  62 S12       29.87S HX  92
TRACY          FAIR      87  75  68 SE5       29.84S HX  96
SLAYTON        FAIR      84  74  72 S8        29.85F HX  91
$$
MNZ065>067-074>077-082>085-091>093-022200-
   South Central Minnesota

CITY           SKY/WX    TMP DP  RH WIND       PRES   REMARKS
MANKATO        CLOUDY    84  72  65 SE5       29.87S
NEW ULM        PTSUNNY   84  72  65 SE5       29.85S
ST JAMES       FAIR      88  73  62 S6        29.85F HX  96
FAIRMONT       FAIR      84  68  58 S9G17     29.86S
GLENCOE        FAIR      84  75  76 NE8       29.87F HX  92
FARIBAULT      FAIR      84  72  65 SE3       29.89F
OWATONNA       FAIR      82  72  69 SW3       29.89F
WASECA         CLOUDY    82  72  69 SW3       29.90S
ALBERT LEA     FAIR      84  70  61 SW8       29.89S
$$
MNZ078>079-086>088-094>096-022200-
   Southeast Minnesota

CITY           SKY/WX    TMP DP  RH WIND       PRES   REMARKS
ROCHESTER      CLOUDY    81  71  71 S9        29.92S
RED WING       PTSUNNY   79  72  78 E7        29.88F
STANTON        FAIR      84  70  63 SE3       29.87F
DODGE CENTER   PTSUNNY   81  70  69 SW6       29.91F
WINONA         CLOUDY    81  68  65 CALM      29.90F
AUSTIN         PTSUNNY   82  72  69 SW6       29.90S
PRESTON        CLOUDY    80  70  70 S7        29.93F
$$
ABBREVIATIONS USED IN REMARKS
   TC - TEMPERATURES IN CELSIUS
  WCI - WIND CHILL INDEX
   HX - HEAT INDEX
  VSB - VISIBILITY
$$


USA.gov is the U.S. government's official web portal to all federal, state and local government web resources and services.